CZ-4C DEB, 44617

Orbit data source: Space-Track

CZ-4C DEB, 44617 is space debris in LEO originally from a launch on Tue, 10 Apr 2018 UTC launched from the Taiyaun Space Center, China (TSC). Debris objects in space refer to the collection of defunct objects orbiting the Earth. Examples of debris include non-operational satellites, rocket bodies, and fragments generated from explosions, collisions, or faulty payload assembly.

Loading next visibility...
CZ-4C DEB details
Identifier
44617, 2018-034J
Orbit
LEO
Last TLE update15 hours ago
Origin
Flag of CNCNSA (CN / PRC)
ManufacturerUnknown
MissionSpacecraft
Bus & MotorUnknown
MassUnknown
Launch date (UTC)
2018-04-10 (7 years ago)
Launch vehicleUnknown
Launch site
Taiyaun Space Center, China (TSC)
Object type
Payload
Rocket body
Debris
Shape & HBRUnknown
Radar Cross SectionSmall (<0.1 m²)

Expand to show TLE details & history

TLE from 15 hours ago
0 CZ-4C DEB
1 44617U 18034J   24340.81611043 -.00000049  00000-0  64710-4 0  9991
2 44617  63.3986 135.0846 0203087   6.1816 354.1643 13.40969830319369
Epoch: 2024-12-05T19:35Z
Definitive object data (Epoch: 2024-12-05T19:35:11.941Z)
Latitude-0°
Longitude126.19336°
Altitude956.251 km
Speed7.448 km/s
True Right ascension09h 00m 20s
True Declination0° 00' 00"
Sunlit
Object was in daylight at TLE epoch
Visualization TLE readout
Latitude58.07547°
Longitude-108.48539°
Altitude1,143.975 km
Speed7.272 km/s
Apparent Right ascension19h 05m 03s
Apparent Declination15° 39' 58"
Sunlit
Object is in daylight
Visualization observer readout
Local Sidereal Time08:28:12
Azimuth23.531° NE
Elevation-31.142°
Doppler factor1
Orbital elements
Apogee altitude1,256.463 km
Perigee altitude952.538 km
Semi-major axis7,482.637 km
Eccentricity0.0203087
Inclination63.3986°
RAAN135.0846°
Arg. of periapsis6.1816°
True anomaly353.92156°
Mean anomaly354.1643°
Eccentric anomaly354.04355°
Mean motion3.35321 °/min
BSTAR0.00006471
Orbital period107.36 mins
Loading maneuver chart data...
Loading historical data...
Loading historical data...
Loading historical data...
Loading historical data...
Loading historical data...
Loading historical data...
Loading historical data...

CZ-4C DEB Visibility forecast

Observer location: undefined°, undefined

Span
Click to sort rows by Start time (UTC) header in descending order
Start Az.
Max El. time (UTC)
Max El. Az.
Max El.
End time (UTC)
End Az.
12 mins2024-12-06 11:47:52.642Z191.038° SSW2024-12-06 11:53:52.642Z114.597° SE38.175°2024-12-06 11:59:52.642Z43.46° NE
9 mins2024-12-06 13:40:52.642Z264.313° W2024-12-06 13:44:52.642Z316.056° NNW28.011°2024-12-06 13:49:52.642Z14.901° NNE
11 mins2024-12-06 19:21:52.642Z349.522° N2024-12-06 19:26:52.642Z42.537° NE24.995°2024-12-06 19:32:52.642Z95.985° ESE
13 mins2024-12-06 21:12:52.642Z322.146° NNW2024-12-06 21:17:52.642Z275.867° WNW44.064°2024-12-06 21:25:52.642Z154.395° SSE
6 mins2024-12-06 23:05:52.642Z275.603° WNW2024-12-06 23:07:52.642Z258.776° W14.061°2024-12-06 23:11:52.642Z226.388° WSW
|